AFR647 FMEE-LFPG

Flight info

Callsign AFR647
Flight time N/A
Altitude 32000
Route UVENA2J UVENA UN304 DENLI/N0506F330 UN304 APKAK/N0508F320 UN304 MOGDU/N0501F340 UN304 DWA DCT XADOX DCT KONET/N0497F350 UG650 RASKA/N0502F340 T513 EGMEG/N0497F350 G660 JDW/N0500F340 L677 DARAX/N0491F360 L677 CVO L617 MENKU Y661 ANTAR DCT KUGGI DCT YNN UL613 VJOSA DCT PAPIZ DCT AIOSA DCT IBENI/N0477F380 DCT IBUPU DCT TZO DCT PUNSA DCT UNKIR DCT GIVRI DCT TINIL
Aircraft B77W/H-SDE2E3FGHIJ3J5M1P2RWXYZ/LB1D1

Departure

Time N/A
Airport Roland Garros Airport (FMEE)

Arrival

Time 2026-05-04 17:04
Airport Charles de Gaulle International Airport (LFPG)
Time Latitude Longitude Altitude Speed Heading
2026-05-04 16:47 48.83777 3.03027 13605 ft 296 kts 301°
2026-05-04 16:48 48.87752 2.95912 12610 ft 293 kts 311°
2026-05-04 16:48 48.89126 2.93652 12375 ft 289 kts 311°
2026-05-04 16:49 48.91899 2.89054 11284 ft 302 kts 311°
2026-05-04 16:49 48.93634 2.83719 9987 ft 279 kts 271°
2026-05-04 16:50 48.93395 2.78065 9753 ft 275 kts 264°
2026-05-04 16:50 48.93059 2.72078 9795 ft 287 kts 264°
2026-05-04 16:51 48.92733 2.66130 9769 ft 279 kts 264°
2026-05-04 16:51 48.92573 2.63189 9773 ft 279 kts 264°
2026-05-04 16:51 48.92253 2.57303 9782 ft 283 kts 264°
2026-05-04 16:52 48.91929 2.51324 9778 ft 283 kts 264°
2026-05-04 16:52 48.91766 2.48381 9780 ft 283 kts 264°
2026-05-04 16:53 48.91438 2.42433 9773 ft 282 kts 264°
2026-05-04 16:53 48.90938 2.33549 9478 ft 289 kts 264°
2026-05-04 16:54 48.90766 2.30497 9135 ft 279 kts 264°
2026-05-04 16:55 48.90096 2.18764 7915 ft 286 kts 264°
2026-05-04 16:55 48.89763 2.13006 7287 ft 283 kts 264°
2026-05-04 16:56 48.90866 2.07594 6592 ft 274 kts 317°
2026-05-04 16:56 48.95715 2.06691 6063 ft 225 kts 42°
2026-05-04 16:57 48.96573 2.08540 5876 ft 210 kts 76°
2026-05-04 16:57 48.96932 2.12697 5685 ft 192 kts 86°
2026-05-04 16:58 48.97276 2.18863 5133 ft 197 kts 87°
2026-05-04 16:58 48.97385 2.20942 4874 ft 197 kts 86°
2026-05-04 16:59 48.97605 2.25074 4345 ft 194 kts 86°
2026-05-04 17:00 48.98033 2.33057 3349 ft 181 kts 86°
2026-05-04 17:00 48.98320 2.38417 2679 ft 165 kts 86°
2026-05-04 17:01 48.98500 2.41802 2237 ft 153 kts 86°
2026-05-04 17:01 48.98666 2.44922 1845 ft 143 kts 85°
2026-05-04 17:02 48.98812 2.47931 1480 ft 143 kts 85°
2026-05-04 17:02 48.98998 2.50921 1049 ft 141 kts 85°
2026-05-04 17:03 48.99068 2.52418 849 ft 141 kts 85°
2026-05-04 17:03 48.99148 2.53911 697 ft 142 kts 84°
2026-05-04 17:03 48.99309 2.56904 372 ft 137 kts 84°
2026-05-04 17:04 48.99417 2.58932 362 ft 43 kts 85°
2026-05-04 17:04 48.99532 2.59474 365 ft 12 kts 64°
2026-05-04 17:05 48.99616 2.59682 367 ft 10 kts 24°
2026-05-04 17:05 48.99681 2.59687 359 ft 0 kts 357°
2026-05-04 17:07 48.99687 2.59687 359 ft 2 kts 356°
2026-05-04 17:07 48.99699 2.59686 359 ft 3 kts 356°
2026-05-04 17:07 48.99752 2.59681 364 ft 8 kts 356°
2026-05-04 17:07 48.99822 2.59673 362 ft 11 kts 355°
2026-05-04 17:08 48.99901 2.59663 358 ft 12 kts 355°
2026-05-04 17:08 48.99984 2.59510 367 ft 12 kts 266°
2026-05-04 17:08 48.99979 2.59387 360 ft 12 kts 265°
2026-05-04 17:09 48.99973 2.59264 364 ft 12 kts 264°
2026-05-04 17:09 48.99965 2.59141 360 ft 12 kts 267°
2026-05-04 17:09 48.99961 2.59017 363 ft 12 kts 267°
2026-05-04 17:10 48.99953 2.58840 359 ft 12 kts 264°